Wind_Speed
33 32 32 31 30 30 29 27 27 26 26 25 23 22 22 21 20 20 19 19 18 17 17 17 16 15 15 14 14 15 15 16 17 18 20 21 23 25 26 27 27 27 26 26 25 24 24 24 24 24 24 24 25 25 25 25 25 25 26 26 27 27 27 28 28 28 28 28 29
32 32 32 32 31 29 28 27 26 25 24 24 22 22 22 22 21 20 19 19 19 19 18 17 16 16 15 14 14 14 15 16 17 19 21 23 25 26 26 26 26 26 25 24 24 23 23 24 24 25 25 25 26 26 26 27 26 26 26 27 27 27 27 27 28 28 28 28 28
32 32 32 32 31 29 28 27 27 25 24 23 23 23 22 22 21 20 19 19 19 19 18 16 15 15 15 14 14 15 17 18 20 22 24 26 26 25 24 25 25 24 24 23 23 23 24 25 25 26 26 26 27 27 27 28 28 27 27 28 28 27 27 27 27 27 27 27 27
32 32 31 31 30 28 27 27 27 26 25 24 24 23 23 22 21 20 20 19 18 17 15 14 13 13 14 15 16 17 20 22 23 24 24 23 23 24 24 24 24 23 23 23 24 25 25 26 27 28 28 28 29 29 29 29 28 28 28 28 28 28 28 28 28 27 27 27 27
32 31 31 30 29 29 28 28 27 26 25 25 24 23 22 21 20 19 17 16 14 13 12 12 13 13 15 16 18 20 22 22 22 21 21 21 22 24 24 24 24 24 24 25 25 26 27 28 28 29 29 29 29 29 29 29 28 28 28 28 28 28 28 28 28 28 27 27 27
31 31 30 30 29 29 29 28 27 25 25 24 23 22 21 20 17 15 13 10 11 11 12 13 15 17 18 19 21 21 21 20 19 19 20 22 23 24 24 24 24 25 25 26 27 27 28 28 29 29 29 29 29 29 29 28 27 27 27 28 28 28 28 28 28 27 27 27 27
29 28 28 28 29 28 28 27 26 25 24 23 21 20 18 16 12 10 10 11 12 13 15 17 18 20 21 21 21 20 19 18 18 19 21 23 24 24 24 25 25 26 27 27 28 28 29 29 29 29 29 29 29 29 28 28 27 27 26 27 27 27 27 27 27 27 27 27 27
26 26 26 27 27 28 27 26 25 24 22 21 18 16 14 11 9 10 13 16 17 18 20 21 21 21 21 20 19 18 17 18 20 21 23 24 24 25 25 26 26 27 28 28 28 29 29 29 29 29 29 29 28 28 28 27 26 26 26 27 27 27 27 27 27 27 27 28 28
26 26 27 27 27 27 26 25 23 21 19 17 15 14 12 12 14 17 20 22 23 23 23 22 22 21 19 18 17 17 18 19 21 22 23 24 24 25 25 26 26 27 28 28 28 28 28 28 28 28 28 27 27 27 27 26 26 27 27 28 28 28 28 28 28 28 28 28 29
27 27 27 27 27 27 25 23 20 18 16 16 14 14 15 18 21 24 25 24 24 23 22 20 19 17 16 16 16 17 18 19 21 22 22 23 23 23 24 24 25 26 26 27 27 27 27 27 27 27 27 27 27 27 28 28 28 28 29 29 29 30 29 29 29 29 29 30 30
27 27 27 27 26 25 23 20 18 16 15 15 15 17 20 22 24 24 24 23 21 19 17 15 14 14 14 15 16 16 17 18 19 20 20 21 21 22 23 23 24 25 26 26 27 27 27 27 27 28 28 29 29 29 29 29 30 30 30 31 31 31 31 31 31 30 30 30 31
25 25 25 24 22 21 19 17 16 15 14 15 16 19 21 22 22 21 19 17 15 14 13 13 13 13 14 15 15 16 17 18 18 19 19 20 21 22 23 24 25 26 27 27 27 27 28 28 29 29 30 30 30 30 30 30 30 31 31 31 31 31 31 31 31 31 30 30 31
23 22 20 18 17 16 15 15 15 15 14 15 16 17 17 16 15 14 13 12 12 12 12 12 13 14 15 15 16 17 18 19 19 20 21 22 23 24 25 26 26 27 28 28 28 28 29 29 30 30 31 31 31 31 31 31 31 31 31 31 31 32 32 32 31 31 31 31 31
20 19 17 14 14 14 14 14 14 14 14 14 13 12 12 11 10 10 10 10 11 11 12 13 13 14 15 16 17 19 20 21 21 22 23 24 25 25 26 27 27 28 28 28 28 28 29 29 29 30 30 30 31 31 31 31 31 31 32 32 32 32 32 32 32 31 31 31 31
16 15 14 13 13 13 12 12 12 11 11 10 9 9 9 9 9 9 10 10 11 12 12 13 15 16 17 18 19 20 22 22 23 24 24 25 26 26 27 27 27 27 27 28 28 28 28 28 29 29 30 30 31 31 31 31 31 31 32 32 32 32 32 32 32 32 32 31 31
14 13 13 12 12 12 11 11 10 10 9 9 9 9 9 9 9 9 10 10 11 12 13 15 16 17 18 20 21 22 23 23 24 24 25 26 26 27 27 28 27 27 28 28 28 28 29 29 29 30 30 31 31 31 31 31 32 32 32 33 33 33 33 33 33 32 32 32 32
13 12 12 11 11 10 10 9 9 9 10 10 10 9 9 9 9 9 10 11 12 13 15 16 17 19 20 22 23 23 24 24 25 25 26 26 27 28 28 28 28 28 28 29 29 29 29 30 30 30 31 31 31 32 32 32 32 33 33 33 33 33 33 33 33 32 32 32 33
12 11 10 10 9 9 8 8 9 10 10 10 9 8 8 9 9 10 11 12 13 14 16 17 19 20 22 23 24 24 24 24 25 26 26 27 28 28 28 29 29 29 29 29 29 30 30 30 30 31 31 31 32 32 32 32 32 33 33 33 33 33 33 33 34 34 34 34 35
10 9 9 8 7 7 8 9 9 10 10 9 8 8 8 9 9 10 12 13 14 16 17 19 20 21 22 23 24 24 24 25 25 26 27 27 27 28 28 29 29 29 29 29 30 30 30 30 31 31 31 31 31 32 32 32 32 33 33 33 33 34 34 35 35 36 36 36 36
8 8 7 7 7 7 8 9 9 9 8 8 8 8 8 9 10 12 13 15 16 17 18 20 21 21 22 23 23 24 24 25 25 26 27 28 28 29 29 30 30 30 30 30 30 30 30 30 30 30 31 31 31 31 32 32 32 33 33 34 34 35 35 36 36 36 36 36 37
7 7 6 6 7 7 8 8 8 8 7 7 7 8 9 10 12 13 15 16 17 18 19 20 21 21 22 23 23 24 25 25 26 28 29 30 30 31 31 31 31 31 31 30 30 30 30 30 30 30 30 31 31 31 32 32 32 33 33 34 34 34 35 35 35 35 35 36 36
6 6 6 7 7 8 8 8 7 7 7 7 8 9 10 12 13 15 16 17 18 18 19 20 20 21 22 23 24 25 26 27 29 30 31 31 32 32 32 32 32 31 31 31 30 30 30 30 30 30 30 30 30 30 30 30 31 31 32 32 32 32 32 32 33 33 33 34 34
6 6 6 7 7 8 8 7 7 7 8 8 10 11 12 13 14 15 16 17 17 18 19 20 21 22 24 25 26 27 28 29 30 31 32 32 32 32 32 31 31 31 31 30 30 30 30 30 30 30 30 30 30 30 29 30 30 30 30 30 30 31 31 31 32 32 32 33 33
6 7 7 7 7 7 7 7 7 8 10 11 11 11 12 13 14 15 16 17 18 19 20 22 23 25 26 26 27 28 29 30 31 31 32 32 31 31 31 30 30 30 30 30 30 30 30 30 30 30 30 30 30 30 31 31 31 31 31 31 32 32 33 34 34 35 35 36 37
7 7 8 7 7 7 7 8 9 11 12 12 12 12 13 14 15 16 17 18 19 21 22 24 26 26 27 27 28 29 29 30 30 31 31 31 30 30 30 30 30 30 30 30 30 29 29 30 30 31 31 31 32 32 32 32 32 31 31 32 32 33 35 36 37 38 38 39 40
6 7 7 7 7 8 9 11 12 13 13 12 12 13 14 15 16 17 18 20 22 23 25 26 26 27 27 27 28 28 29 29 29 29 29 29 29 29 29 29 29 29 29 29 29 30 30 30 31 31 32 32 32 33 33 32 32 31 32 33 34 35 36 37 38 39 39 39 40
8 8 8 8 9 11 12 13 14 13 13 12 13 14 15 15 16 18 20 22 24 25 26 26 26 26 26 26 26 27 27 27 28 28 28 28 29 29 29 29 29 29 30 30 30 30 30 31 31 31 32 32 33 33 34 34 33 33 34 35 35 36 37 38 39 39 39 39 40
12 12 12 13 14 14 15 15 14 13 13 14 14 15 15 16 18 20 23 24 25 25 24 24 24 24 25 25 25 26 27 27 28 28 29 29 29 29 30 30 30 30 30 30 30 30 30 31 31 31 32 33 33 34 34 34 35 35 35 35 35 36 37 38 39 39 39 39 38
16 15 15 15 15 15 15 15 14 14 14 15 15 15 16 18 21 23 24 24 23 23 23 23 23 24 25 26 27 28 28 29 29 29 29 29 29 29 30 30 30 30 30 30 30 30 31 31 31 32 32 33 34 35 35 35 35 35 35 35 35 36 36 37 38 38 37 37 36
16 15 15 14 14 14 14 14 14 14 15 15 15 16 18 21 23 23 23 23 23 23 23 24 24 25 26 27 28 28 28 28 28 28 29 29 29 30 30 30 30 31 31 31 31 31 31 31 32 32 34 35 36 37 37 38 37 37 37 37 37 38 38 38 37 36 35 34 34
14 13 12 13 13 13 13 14 14 14 14 14 16 18 20 22 23 22 22 23 23 23 24 25 25 26 27 27 27 27 28 28 28 29 29 29 30 30 31 31 31 31 31 31 30 30 31 31 33 34 35 36 38 39 40 40 40 39 38 38 37 35 34 33 33 33 33 33 34
11 11 11 12 12 13 13 13 13 14 14 15 17 20 22 22 22 22 22 23 24 24 25 25 25 26 26 26 27 27 28 29 29 29 30 30 30 31 31 31 31 31 31 30 30 30 31 33 34 36 37 38 40 40 40 39 38 36 34 33 32 31 31 32 32 33 33 33 34
10 10 10 11 12 13 13 13 13 13 15 17 20 21 22 22 23 23 23 24 24 24 25 25 25 25 26 27 28 28 29 29 30 30 30 30 30 31 31 31 31 31 30 30 31 32 33 35 36 38 39 40 39 37 35 32 30 29 29 29 29 30 30 31 32 32 32 32 33
10 10 10 11 12 12 13 13 13 15 17 20 21 22 22 22 23 24 24 24 24 24 24 24 25 26 27 27 28 29 29 30 30 30 31 31 31 31 31 31 31 31 31 31 32 33 35 37 38 39 38 36 33 30 27 26 26 27 27 28 29 29 30 30 30 31 31 31 32
10 10 11 11 12 13 13 14 16 18 19 21 22 22 23 23 24 24 24 24 23 24 24 25 26 27 27 28 28 29 29 30 30 31 31 31 31 31 31 31 31 31 31 32 33 35 37 39 38 36 33 29 26 25 24 25 26 27 28 28 29 29 30 30 30 30 30 30 31
10 10 10 11 11 12 13 15 17 19 20 21 22 23 23 23 23 23 23 23 24 24 25 26 27 27 28 28 28 29 29 29 30 30 31 31 31 31 31 31 31 32 32 34 36 38 38 37 34 30 26 23 23 23 24 25 26 28 29 29 30 30 30 30 30 30 30 30 30
8 8 8 9 10 12 13 16 17 19 20 21 22 22 22 23 22 23 23 23 24 25 26 27 27 28 28 28 28 29 29 29 30 30 30 31 30 30 30 31 32 34 35 37 38 37 35 30 26 23 21 21 22 24 25 27 28 29 30 31 31 31 31 31 31 31 31 31 31
5 6 7 9 11 13 15 17 18 20 21 22 22 21 21 22 22 23 24 24 25 26 26 27 27 27 28 28 29 29 30 30 30 30 30 29 29 30 30 32 34 37 38 38 36 32 27 23 20 19 20 22 24 26 27 29 30 31 32 32 32 32 32 32 32 32 32 32 32
5 7 9 12 14 16 17 19 20 20 21 21 21 21 21 22 23 24 25 25 25 25 26 26 27 28 28 29 29 30 30 30 29 28 28 29 29 31 33 35 37 38 37 34 29 25 22 19 19 19 21 23 25 28 30 31 32 33 34 34 34 34 33 33 33 33 33 33 32
7 10 12 15 16 18 19 20 20 20 20 20 21 22 23 24 25 25 26 25 25 25 26 27 28 28 29 29 29 29 29 29 28 28 29 30 32 34 35 37 37 36 32 28 24 22 20 20 20 21 23 25 27 29 31 32 34 35 35 35 35 34 33 32 32 31 31 30 29
11 14 16 17 18 19 19 20 19 19 19 20 22 24 25 26 26 25 25 25 25 26 26 27 28 29 29 29 29 29 29 29 29 30 31 32 34 35 36 36 34 32 28 25 23 22 22 22 22 23 24 26 28 30 32 33 35 36 35 35 33 31 30 29 28 28 27 26 26
Wind_Direction
256 254 251 247 244 242 239 236 233 231 228 227 226 229 231 232 232 232 232 233 234 238 242 244 247 250 254 259 265 270 274 278 281 285 290 294 297 299 300 300 299 297 296 296 297 299 300 300 300 299 297 295 293 291 290 288 287 285 283 282 281 280 279 278 277 276 276 275 274
257 253 249 244 240 237 235 234 232 231 230 229 229 231 234 235 236 237 239 242 246 249 252 255 257 259 264 270 274 278 280 283 285 288 290 293 296 298 299 299 297 295 295 296 298 299 300 300 299 298 296 293 291 289 288 288 286 284 282 281 280 279 278 277 277 276 276 275 275
254 250 246 242 239 237 235 234 234 232 231 232 234 236 237 239 241 243 246 249 252 254 256 260 264 268 271 275 276 278 280 283 286 289 292 295 297 299 298 297 295 294 295 297 298 300 300 300 299 297 294 292 290 288 287 286 285 283 281 280 279 278 277 276 276 276 275 275 274
252 248 245 242 239 236 233 233 234 234 234 235 237 239 242 245 247 249 250 252 253 256 260 266 272 275 274 275 276 279 282 286 289 292 294 296 298 298 297 295 295 296 298 300 301 302 303 302 301 298 296 294 291 289 287 286 285 283 281 279 279 277 276 275 275 275 274 274 273
253 248 245 241 238 236 235 234 234 234 235 237 241 244 248 250 251 252 252 254 256 261 266 269 269 270 271 274 279 284 287 291 293 294 294 295 296 296 296 296 298 300 302 303 304 305 305 304 303 300 298 296 293 291 289 287 284 282 280 278 278 276 275 275 274 274 274 274 273
253 247 243 240 237 235 235 235 235 236 238 242 247 250 252 251 249 249 251 256 259 262 263 262 264 268 273 279 284 288 291 292 293 291 291 293 295 296 297 299 302 304 305 306 306 307 306 305 303 301 298 296 293 291 289 287 283 280 279 278 277 276 275 275 275 274 274 274 273
251 246 241 238 236 235 236 236 237 240 244 249 251 251 248 244 239 240 246 251 254 255 258 262 268 275 281 286 289 291 291 291 290 291 293 294 295 297 300 303 305 306 307 307 307 307 306 305 303 300 298 295 292 289 287 285 282 279 277 276 276 276 275 275 275 275 274 274 273
251 246 242 240 238 238 238 239 242 246 250 251 247 241 236 232 232 238 245 250 253 258 264 272 278 284 287 289 290 290 290 291 293 295 296 297 299 302 304 306 307 307 307 307 307 306 305 304 301 298 295 293 290 287 285 283 280 278 276 275 275 275 275 275 275 275 274 274 274
250 246 244 242 241 240 241 244 247 250 250 243 234 228 227 233 241 248 253 257 262 269 276 282 286 289 290 290 289 289 291 295 299 299 300 301 303 304 305 306 306 306 306 306 305 304 302 300 297 294 291 288 286 284 282 281 278 277 276 275 275 275 275 275 274 274 274 274 274
249 246 244 243 243 243 245 247 248 244 238 230 226 228 237 247 255 260 265 269 275 280 285 288 290 290 288 286 286 288 292 298 300 300 300 301 302 302 302 302 301 301 301 300 300 298 296 293 289 287 285 283 281 280 279 278 277 276 276 275 276 275 275 275 274 274 274 274 273
247 246 245 245 246 247 248 246 241 233 228 228 233 242 252 261 268 272 277 281 285 287 288 287 286 283 282 282 283 286 290 294 295 296 296 296 295 295 295 295 294 294 294 294 294 292 289 287 285 283 282 281 280 279 278 278 277 276 276 276 276 276 275 275 274 274 273 273 273
247 247 247 248 248 248 246 239 231 228 230 237 248 258 267 273 278 282 285 286 286 283 279 277 276 277 279 281 282 284 286 287 288 288 288 288 289 290 290 291 291 292 292 291 291 289 286 284 283 282 282 281 280 279 278 278 277 277 277 277 276 276 276 275 275 274 274 273 273
248 248 248 245 242 240 236 232 229 232 240 251 261 270 276 279 282 283 282 279 274 270 270 272 274 276 279 282 283 285 286 286 286 286 286 287 288 290 290 291 292 292 292 291 290 288 286 284 283 283 282 281 280 280 279 278 277 277 277 277 276 276 275 275 275 274 274 274 273
248 248 245 237 232 229 229 230 234 242 251 262 268 272 274 274 272 270 267 264 264 265 268 272 275 278 280 282 285 286 287 287 287 288 289 290 291 292 293 293 294 293 292 291 290 288 286 284 283 282 281 281 280 279 278 278 277 277 277 277 276 276 276 275 275 275 275 274 274
243 241 236 229 225 224 226 232 242 251 258 263 265 265 263 260 259 259 259 260 263 266 270 273 277 280 283 285 286 287 288 289 289 290 291 292 293 294 295 295 295 293 292 290 289 287 285 284 283 282 281 280 279 279 278 278 277 277 277 277 277 276 276 276 276 276 275 275 275
235 231 225 221 221 223 228 237 248 256 260 261 261 258 255 254 256 258 259 263 266 270 273 276 279 282 285 288 288 289 289 290 291 292 293 294 295 296 296 295 294 292 291 290 288 287 285 284 283 282 281 280 279 279 278 278 278 277 277 277 276 276 276 276 276 275 275 275 274
226 221 218 217 221 226 234 243 251 257 261 263 259 254 252 253 256 259 263 267 271 274 277 279 282 285 287 288 289 290 290 291 292 293 294 295 296 296 296 294 293 292 291 289 288 287 286 285 284 282 281 280 279 279 278 278 277 277 276 276 276 276 275 275 275 275 274 274 273
219 217 216 219 225 233 241 248 253 259 261 259 256 252 251 253 257 262 267 271 275 277 280 282 284 286 288 289 289 290 290 291 292 293 294 295 295 295 294 293 292 291 290 289 287 286 285 285 284 283 282 281 280 279 279 278 278 277 276 276 275 275 275 274 274 274 274 274 274
215 215 218 223 232 242 250 254 258 260 259 255 253 252 252 256 261 267 272 276 279 281 283 285 285 287 288 289 289 290 290 291 292 292 293 293 293 292 291 291 290 290 289 288 287 286 285 284 283 283 282 281 280 280 279 279 278 277 277 276 275 275 274 274 274 274 274 274 274
211 216 223 232 242 250 255 257 257 257 254 251 250 253 258 262 268 272 276 280 282 284 285 285 285 286 287 289 289 290 290 291 291 291 291 291 290 290 290 290 290 290 289 288 287 286 285 284 283 283 282 281 281 280 280 279 278 277 277 276 276 275 275 275 274 274 273 272 271
207 216 228 239 247 253 254 254 251 248 247 248 253 259 265 270 274 276 279 281 283 285 285 285 286 287 288 289 289 289 289 290 290 289 290 290 291 291 292 292 291 290 290 288 287 286 285 284 284 284 283 282 282 281 280 280 279 278 278 278 277 277 276 275 274 272 270 268 267
214 225 237 247 253 254 252 248 245 244 246 252 260 267 273 276 278 280 282 283 284 285 285 286 288 288 289 289 288 288 288 289 289 290 291 292 293 293 294 293 292 291 290 289 288 287 286 286 286 285 285 284 283 282 281 280 280 279 279 279 278 277 276 275 273 271 270 268 267
227 239 251 257 258 255 249 245 243 245 251 259 267 274 277 280 282 283 285 285 285 286 287 288 289 290 289 289 288 288 288 289 290 292 293 294 295 295 295 294 292 291 291 290 289 289 288 287 287 286 285 284 283 281 280 279 279 278 278 277 276 275 274 273 272 271 271 270 269
241 253 261 263 259 253 246 243 244 249 257 266 273 277 280 282 284 286 287 287 287 288 289 290 291 291 290 289 289 288 289 290 292 293 295 296 296 295 295 294 292 291 291 290 290 289 288 287 286 286 285 284 283 281 280 279 278 278 277 276 274 273 271 270 270 269 270 270 271
255 264 268 265 257 248 243 243 249 257 266 272 276 278 281 283 285 287 288 290 290 291 291 292 292 292 291 290 290 291 291 292 293 295 296 296 296 295 294 293 292 292 291 290 289 288 287 287 287 287 286 285 284 283 282 280 279 277 276 275 274 273 272 272 271 271 272 272 273
266 271 270 261 251 244 244 249 258 267 273 276 276 278 281 285 287 289 291 292 293 293 294 294 294 294 293 292 293 293 294 294 295 295 295 295 294 293 292 291 290 290 289 289 289 289 288 288 288 288 288 287 285 283 281 280 278 276 275 275 274 274 274 274 274 275 275 275 276
274 273 265 253 247 246 250 258 266 272 274 274 276 279 283 287 290 292 293 295 296 297 297 296 295 295 294 294 294 294 295 295 295 294 293 293 292 292 291 290 290 290 289 289 290 290 290 290 289 288 287 286 284 282 280 279 278 277 276 276 276 276 276 276 276 277 277 277 277
279 273 263 254 251 254 260 266 269 270 270 273 277 281 285 288 292 295 297 298 299 299 298 297 296 295 295 295 294 294 295 295 294 294 293 293 292 292 292 292 292 291 291 291 290 290 289 289 288 287 285 283 282 280 279 279 279 278 278 278 278 277 277 277 277 277 277 277 276
282 275 267 262 262 265 268 270 270 269 271 274 278 282 287 291 296 298 300 300 300 299 297 297 296 296 295 295 295 296 296 296 295 295 295 295 294 294 293 293 292 292 291 290 290 289 288 287 285 284 282 281 280 279 279 279 280 280 280 280 279 278 278 277 277 277 276 276 276
285 279 274 271 271 272 272 271 271 273 274 276 280 285 292 297 299 300 300 300 299 298 297 296 296 296 296 297 297 297 298 298 298 298 297 296 295 294 294 293 292 292 291 290 289 288 287 286 283 281 280 279 278 278 279 280 281 281 281 280 279 278 278 278 278 277 277 276 276
287 283 279 276 273 271 271 272 273 274 276 279 285 292 297 300 300 300 299 299 298 297 297 297 297 297 298 298 299 299 299 299 299 298 297 296 295 294 294 293 293 292 292 291 290 288 286 284 282 280 279 279 279 280 281 281 282 282 282 281 281 280 280 280 280 279 278 277 276
289 285 280 274 270 269 269 270 271 273 277 285 293 298 300 300 300 299 298 298 298 298 298 299 299 299 300 300 300 300 300 299 298 297 297 296 295 295 295 294 294 293 292 291 290 288 285 283 282 282 282 283 283 284 284 284 285 284 284 284 283 283 282 282 281 280 279 279 278
290 284 276 270 267 267 268 269 272 278 286 295 300 302 301 299 299 299 298 298 299 299 300 300 300 300 300 300 300 300 300 299 298 298 297 297 296 296 296 295 295 294 293 291 289 287 286 285 285 286 287 288 289 289 289 290 290 290 289 287 286 286 285 284 283 283 282 281 280
287 281 274 268 264 264 267 272 281 290 297 301 303 302 300 298 298 299 299 300 300 300 300 300 300 300 300 300 300 300 300 299 299 299 298 298 297 297 296 296 295 294 293 291 289 288 288 289 290 291 293 293 294 295 296 296 296 294 292 291 290 290 289 288 287 286 285 284 283
279 275 271 268 267 270 277 286 294 299 302 303 302 301 299 299 299 300 300 301 301 301 300 300 301 301 301 301 301 300 300 300 299 299 299 298 298 297 297 296 295 294 293 292 291 291 292 293 295 296 297 299 300 302 302 301 299 298 296 295 294 293 293 291 290 288 287 286 284
267 267 269 272 278 285 292 297 301 303 303 302 301 300 300 300 300 301 301 302 302 302 302 302 303 303 303 302 302 301 301 301 300 300 299 299 299 298 297 296 295 294 293 293 293 294 296 297 299 301 303 306 307 308 306 304 302 300 299 297 296 295 294 293 292 290 289 287 286
258 263 272 282 291 297 300 302 303 303 302 301 301 301 301 301 302 302 302 303 303 303 304 304 305 304 304 304 303 302 301 301 301 301 300 300 299 299 298 296 295 294 295 296 297 298 300 301 303 307 311 313 312 311 309 306 303 301 299 297 296 295 295 294 293 291 290 289 288
260 272 285 296 302 304 305 306 305 304 303 302 302 302 302 302 303 303 304 304 305 305 305 306 306 305 305 304 303 302 302 301 301 301 301 300 299 298 297 296 296 297 298 300 302 303 305 307 310 314 317 317 314 312 309 306 303 301 299 297 296 296 296 295 293 292 291 290 290
282 294 302 307 309 309 309 308 306 305 304 303 303 302 302 303 304 305 306 307 307 306 306 306 305 305 305 304 303 303 302 302 302 302 301 299 298 297 296 297 298 300 303 305 308 310 312 315 318 320 321 319 315 311 308 304 302 300 299 297 296 296 296 295 293 292 291 290 289
303 308 311 311 312 311 309 307 306 305 304 303 302 302 303 305 306 308 309 309 308 308 307 306 305 305 305 305 304 304 303 303 302 301 299 298 297 297 298 300 302 305 309 312 315 317 318 320 322 322 321 318 314 310 306 303 300 299 298 297 296 296 295 295 294 292 290 289 287
312 313 313 313 311 310 308 306 305 304 303 302 302 303 306 308 310 311 311 310 309 308 307 307 306 306 306 305 305 304 304 303 302 300 299 299 299 300 302 304 307 310 314 318 319 320 321 321 321 320 319 316 313 309 305 302 300 298 297 297 297 296 296 296 296 294 292 290 289
Height
1469 1469 1469 1469 1468 1468 1468 1468 1468 1468 1468 1468 1468 1469 1470 1471 1472 1472 1472 1473 1473 1473 1473 1473 1474 1474 1473 1473 1473 1473 1473 1472 1473 1473 1473 1473 1473 1473 1473 1473 1473 1472 1472 1471 1470 1470 1469 1469 1468 1468 1467 1467 1467 1466 1466 1466 1466 1465 1465 1464 1464 1464 1463 1463 1463 1462 1462 1462 1462
1467 1467 1466 1465 1465 1465 1466 1466 1466 1467 1467 1467 1468 1468 1469 1470 1470 1470 1471 1471 1472 1472 1472 1472 1472 1472 1472 1472 1472 1471 1471 1471 1471 1471 1471 1471 1471 1471 1471 1471 1471 1470 1470 1469 1468 1468 1468 1467 1467 1466 1465 1465 1464 1464 1464 1464 1464 1463 1463 1462 1462 1462 1461 1461 1460 1460 1460 1460 1459
1464 1463 1463 1463 1463 1463 1464 1464 1465 1465 1466 1466 1467 1467 1468 1468 1468 1469 1469 1470 1470 1470 1470 1471 1471 1471 1470 1470 1470 1469 1469 1469 1469 1469 1469 1469 1469 1469 1469 1469 1469 1468 1468 1467 1467 1466 1466 1465 1465 1464 1463 1463 1463 1462 1462 1461 1461 1461 1460 1460 1460 1459 1459 1458 1458 1458 1458 1457 1457
1461 1461 1460 1461 1461 1461 1462 1462 1463 1464 1464 1464 1464 1465 1466 1467 1467 1468 1468 1468 1468 1469 1469 1469 1469 1469 1469 1468 1468 1468 1467 1468 1468 1468 1468 1468 1468 1468 1468 1468 1467 1467 1466 1465 1465 1464 1464 1463 1463 1462 1461 1461 1460 1460 1459 1459 1459 1458 1458 1458 1457 1457 1457 1456 1456 1456 1455 1455 1455
1459 1459 1458 1458 1459 1459 1459 1460 1461 1462 1462 1462 1463 1463 1464 1465 1466 1466 1466 1467 1467 1468 1468 1468 1468 1467 1467 1466 1466 1466 1466 1466 1466 1466 1466 1466 1466 1466 1466 1466 1465 1464 1464 1463 1463 1462 1462 1461 1460 1459 1459 1458 1458 1457 1457 1457 1456 1456 1456 1455 1455 1455 1454 1454 1453 1453 1453 1453 1452
1457 1456 1456 1456 1457 1457 1458 1458 1459 1460 1460 1461 1462 1463 1463 1463 1464 1464 1465 1465 1466 1466 1466 1466 1465 1465 1465 1465 1465 1465 1465 1465 1465 1465 1465 1465 1465 1465 1464 1463 1463 1462 1462 1461 1460 1460 1459 1459 1458 1457 1457 1456 1455 1455 1455 1454 1454 1453 1453 1453 1453 1452 1452 1452 1451 1451 1451 1450 1450
1454 1454 1454 1454 1455 1455 1456 1456 1457 1458 1458 1459 1460 1461 1461 1462 1462 1462 1463 1463 1464 1464 1464 1463 1463 1464 1464 1464 1464 1464 1464 1464 1464 1464 1464 1464 1463 1463 1462 1461 1461 1460 1459 1459 1458 1458 1457 1457 1456 1455 1454 1454 1453 1453 1453 1452 1452 1451 1451 1450 1450 1450 1450 1449 1449 1449 1448 1448 1448
1453 1453 1453 1453 1453 1454 1454 1455 1456 1456 1457 1458 1459 1460 1459 1459 1460 1460 1460 1461 1461 1462 1462 1463 1463 1463 1463 1463 1463 1463 1463 1463 1463 1463 1463 1462 1461 1460 1460 1459 1458 1458 1457 1457 1456 1456 1455 1454 1454 1453 1452 1452 1451 1450 1450 1450 1450 1449 1449 1448 1448 1448 1448 1447 1447 1446 1446 1446 1445
1451 1451 1451 1452 1452 1453 1453 1454 1454 1455 1456 1457 1458 1458 1457 1457 1457 1458 1458 1459 1460 1461 1461 1462 1462 1462 1462 1461 1461 1461 1461 1461 1461 1461 1460 1460 1459 1458 1458 1457 1456 1456 1455 1455 1454 1454 1453 1452 1452 1451 1450 1450 1449 1448 1448 1448 1448 1447 1447 1446 1446 1445 1445 1445 1444 1444 1444 1443 1443
1449 1449 1449 1450 1450 1451 1452 1453 1453 1454 1455 1455 1455 1455 1455 1455 1456 1457 1458 1459 1460 1460 1460 1460 1460 1460 1460 1460 1460 1460 1460 1460 1459 1459 1458 1458 1457 1457 1456 1455 1455 1454 1453 1453 1453 1452 1451 1451 1450 1449 1448 1448 1447 1447 1446 1446 1446 1445 1444 1444 1443 1443 1443 1442 1442 1442 1441 1441 1440
1447 1447 1448 1448 1449 1450 1451 1452 1452 1453 1453 1453 1453 1453 1454 1455 1456 1457 1458 1458 1458 1459 1459 1459 1459 1459 1459 1459 1459 1459 1459 1458 1458 1458 1457 1456 1456 1455 1455 1454 1453 1453 1452 1451 1451 1450 1449 1449 1448 1447 1446 1446 1445 1445 1444 1444 1443 1443 1442 1441 1441 1441 1440 1440 1439 1439 1439 1438 1438
1445 1446 1447 1447 1448 1449 1450 1450 1451 1451 1451 1452 1452 1453 1454 1455 1455 1456 1457 1457 1458 1458 1458 1459 1459 1459 1459 1459 1458 1458 1458 1458 1457 1456 1456 1455 1454 1454 1453 1453 1452 1451 1450 1449 1449 1448 1447 1447 1446 1445 1444 1443 1443 1442 1442 1441 1441 1440 1439 1439 1438 1438 1438 1437 1437 1437 1436 1436 1435
1445 1445 1446 1447 1448 1448 1448 1449 1449 1450 1450 1451 1452 1453 1453 1454 1455 1455 1456 1456 1457 1457 1458 1458 1458 1458 1458 1458 1458 1457 1457 1456 1456 1455 1454 1453 1453 1452 1451 1450 1449 1449 1448 1447 1447 1446 1445 1444 1443 1443 1442 1441 1440 1440 1439 1439 1438 1438 1437 1436 1436 1435 1435 1434 1434 1434 1434 1433 1433
1444 1445 1446 1447 1447 1447 1448 1448 1448 1449 1450 1451 1452 1453 1453 1454 1455 1455 1456 1456 1456 1457 1457 1457 1457 1457 1457 1456 1456 1455 1455 1454 1454 1453 1452 1451 1451 1450 1449 1448 1447 1446 1446 1445 1444 1443 1443 1442 1441 1440 1439 1438 1438 1437 1437 1436 1436 1435 1434 1434 1433 1433 1432 1432 1432 1432 1431 1431 1430
1444 1444 1445 1446 1446 1446 1447 1447 1448 1448 1450 1451 1451 1452 1453 1453 1454 1454 1455 1455 1456 1456 1456 1456 1455 1455 1455 1455 1454 1453 1453 1452 1452 1451 1450 1449 1448 1448 1447 1446 1445 1444 1443 1443 1442 1441 1440 1440 1439 1438 1437 1436 1435 1435 1434 1434 1433 1433 1432 1432 1431 1430 1430 1429 1429 1429 1429 1428 1428
1443 1444 1444 1445 1445 1446 1447 1447 1448 1448 1449 1450 1451 1452 1452 1453 1453 1453 1454 1454 1454 1454 1454 1454 1454 1453 1453 1453 1452 1452 1451 1450 1449 1448 1448 1447 1446 1445 1444 1443 1443 1442 1441 1440 1439 1438 1438 1437 1437 1436 1435 1434 1433 1433 1432 1431 1431 1430 1430 1429 1428 1428 1428 1427 1427 1427 1426 1426 1425
1443 1443 1444 1444 1445 1446 1447 1448 1448 1449 1449 1450 1450 1451 1451 1451 1452 1452 1453 1453 1453 1453 1453 1453 1452 1452 1451 1451 1450 1450 1449 1448 1447 1446 1445 1444 1444 1443 1442 1441 1440 1439 1438 1438 1437 1436 1435 1434 1434 1433 1432 1432 1431 1430 1429 1429 1428 1428 1427 1426 1426 1425 1425 1424 1424 1424 1423 1423 1423
1443 1443 1443 1444 1445 1446 1447 1448 1448 1448 1449 1449 1449 1450 1450 1451 1451 1451 1451 1452 1452 1452 1451 1451 1451 1450 1449 1449 1448 1448 1447 1446 1445 1444 1443 1442 1442 1441 1440 1439 1438 1437 1436 1435 1434 1433 1433 1432 1431 1430 1430 1429 1428 1427 1427 1426 1425 1425 1424 1424 1423 1423 1422 1422 1422 1421 1421 1420 1420
1443 1443 1444 1445 1446 1446 1447 1448 1448 1448 1448 1448 1449 1449 1449 1450 1450 1450 1450 1450 1450 1450 1450 1449 1449 1448 1448 1447 1446 1445 1445 1444 1443 1442 1441 1440 1439 1438 1438 1437 1435 1435 1434 1433 1432 1431 1430 1429 1428 1428 1427 1426 1425 1425 1424 1423 1423 1422 1421 1421 1420 1420 1419 1419 1419 1418 1418 1418 1417
1443 1443 1444 1445 1446 1446 1447 1447 1448 1448 1448 1448 1448 1449 1449 1449 1449 1449 1449 1449 1449 1449 1448 1448 1447 1446 1446 1445 1444 1443 1443 1442 1441 1440 1439 1438 1437 1436 1435 1434 1433 1432 1431 1430 1429 1428 1427 1426 1426 1425 1424 1423 1423 1422 1421 1421 1420 1419 1418 1418 1418 1417 1417 1416 1416 1416 1415 1415 1414
1443 1444 1444 1445 1446 1446 1447 1447 1447 1447 1447 1448 1448 1448 1448 1448 1448 1448 1448 1448 1448 1447 1447 1446 1445 1445 1444 1443 1443 1442 1441 1440 1439 1438 1437 1436 1435 1434 1433 1432 1431 1429 1428 1428 1426 1425 1425 1424 1423 1422 1422 1421 1420 1419 1418 1418 1417 1416 1416 1415 1415 1414 1414 1413 1413 1413 1412 1411 1410
1443 1444 1444 1445 1445 1446 1446 1446 1446 1446 1446 1446 1446 1447 1447 1447 1447 1447 1447 1446 1446 1445 1445 1444 1443 1443 1442 1442 1441 1440 1439 1438 1437 1436 1435 1434 1433 1431 1430 1429 1428 1427 1426 1425 1424 1423 1422 1421 1421 1420 1419 1418 1418 1417 1416 1415 1415 1414 1413 1413 1412 1412 1411 1411 1410 1409 1408 1407 1407
1443 1443 1444 1444 1445 1445 1445 1445 1445 1445 1445 1445 1445 1445 1445 1446 1446 1445 1445 1445 1444 1444 1443 1443 1442 1441 1441 1440 1439 1438 1437 1435 1434 1433 1432 1431 1430 1429 1428 1427 1426 1424 1423 1423 1422 1421 1420 1419 1418 1418 1417 1416 1415 1414 1414 1413 1412 1412 1411 1410 1409 1409 1408 1408 1407 1406 1405 1404 1403
1443 1443 1443 1444 1444 1444 1444 1444 1444 1444 1444 1444 1444 1444 1444 1444 1444 1444 1444 1443 1443 1442 1442 1441 1440 1439 1439 1438 1437 1436 1434 1433 1432 1431 1429 1428 1428 1426 1425 1424 1423 1422 1421 1420 1419 1418 1418 1417 1416 1415 1415 1414 1413 1412 1411 1410 1409 1409 1408 1407 1406 1406 1405 1404 1403 1403 1402 1401 1401
1442 1443 1443 1443 1443 1443 1443 1443 1443 1443 1443 1443 1443 1443 1443 1443 1443 1443 1442 1442 1441 1441 1440 1439 1438 1438 1437 1435 1434 1433 1432 1431 1429 1428 1427 1426 1425 1424 1423 1422 1421 1420 1419 1418 1417 1416 1416 1415 1414 1413 1412 1411 1410 1409 1408 1407 1407 1406 1405 1404 1403 1402 1401 1400 1400 1399 1399 1398 1398
1441 1442 1442 1443 1443 1442 1442 1442 1442 1442 1442 1442 1442 1442 1442 1442 1442 1441 1441 1440 1440 1439 1438 1437 1436 1435 1434 1433 1432 1431 1430 1428 1427 1426 1425 1424 1423 1422 1421 1420 1419 1418 1417 1416 1415 1414 1414 1413 1412 1411 1410 1409 1408 1407 1405 1404 1403 1403 1402 1401 1400 1399 1398 1397 1396 1395 1395 1394 1393
1441 1441 1441 1441 1441 1441 1440 1440 1441 1441 1441 1441 1441 1441 1441 1441 1440 1440 1439 1438 1438 1437 1436 1435 1434 1433 1432 1431 1430 1429 1428 1426 1425 1424 1423 1422 1421 1420 1419 1418 1417 1416 1415 1414 1413 1413 1412 1411 1410 1409 1408 1407 1405 1403 1402 1401 1400 1399 1398 1398 1397 1396 1395 1393 1393 1392 1391 1390 1390
1440 1440 1440 1440 1439 1439 1439 1440 1440 1440 1440 1440 1440 1440 1439 1439 1439 1438 1438 1437 1436 1435 1434 1433 1432 1431 1430 1429 1428 1427 1426 1425 1423 1422 1421 1420 1419 1418 1417 1416 1415 1414 1413 1412 1411 1411 1410 1409 1408 1407 1405 1404 1402 1401 1399 1398 1397 1396 1395 1394 1393 1393 1391 1390 1389 1388 1388 1387 1386
1439 1439 1438 1438 1438 1438 1439 1439 1439 1439 1439 1439 1439 1438 1438 1438 1437 1437 1436 1435 1434 1433 1432 1431 1430 1429 1428 1427 1426 1425 1424 1423 1421 1420 1419 1418 1417 1416 1415 1413 1413 1412 1411 1410 1409 1408 1407 1406 1405 1404 1403 1401 1399 1398 1397 1396 1394 1393 1392 1391 1390 1389 1388 1387 1386 1385 1384 1383 1383
1438 1438 1438 1438 1438 1438 1438 1438 1438 1438 1438 1438 1438 1437 1437 1436 1436 1435 1434 1433 1433 1432 1431 1430 1429 1428 1426 1425 1424 1423 1421 1420 1419 1418 1417 1416 1415 1413 1412 1411 1410 1409 1408 1407 1406 1405 1404 1403 1402 1401 1399 1398 1397 1395 1394 1393 1392 1390 1389 1388 1386 1385 1384 1383 1383 1382 1381 1380 1380
1437 1437 1437 1437 1437 1437 1437 1437 1437 1437 1437 1437 1436 1436 1435 1435 1434 1433 1433 1432 1431 1430 1429 1428 1427 1426 1424 1423 1422 1421 1419 1418 1417 1416 1415 1414 1413 1411 1410 1408 1408 1406 1405 1404 1403 1403 1401 1400 1399 1397 1396 1395 1394 1393 1391 1389 1388 1387 1385 1384 1383 1382 1381 1380 1379 1379 1378 1378 1377
1436 1436 1436 1436 1436 1436 1436 1436 1436 1436 1436 1435 1435 1435 1434 1433 1433 1432 1431 1430 1429 1428 1427 1426 1425 1423 1422 1421 1420 1419 1418 1416 1415 1414 1413 1411 1410 1408 1407 1406 1405 1403 1403 1402 1401 1399 1398 1397 1396 1394 1393 1392 1391 1389 1388 1386 1384 1383 1382 1381 1380 1379 1378 1378 1377 1376 1376 1375 1375
1435 1435 1435 1435 1435 1435 1435 1435 1435 1435 1434 1434 1434 1433 1433 1432 1431 1430 1429 1428 1427 1426 1425 1424 1423 1422 1420 1419 1418 1417 1415 1414 1413 1411 1410 1409 1408 1406 1405 1403 1402 1401 1400 1399 1398 1397 1395 1394 1393 1391 1390 1388 1387 1385 1383 1382 1381 1380 1379 1378 1377 1376 1376 1375 1374 1374 1373 1373 1372
1434 1434 1434 1434 1434 1435 1434 1434 1434 1433 1433 1433 1433 1432 1431 1430 1429 1428 1428 1427 1426 1424 1423 1422 1421 1420 1418 1417 1416 1414 1413 1412 1410 1409 1408 1406 1405 1404 1402 1401 1399 1398 1397 1396 1395 1393 1392 1391 1389 1388 1387 1385 1383 1382 1380 1379 1378 1377 1376 1375 1374 1374 1373 1373 1372 1371 1370 1370 1369
1433 1433 1434 1434 1434 1434 1433 1433 1433 1433 1432 1432 1431 1430 1430 1429 1428 1427 1426 1425 1424 1423 1422 1420 1419 1418 1417 1415 1414 1413 1411 1409 1408 1407 1405 1404 1403 1401 1400 1398 1397 1396 1395 1393 1392 1391 1389 1388 1386 1385 1383 1382 1380 1379 1378 1377 1376 1375 1374 1373 1372 1371 1371 1370 1369 1368 1368 1367 1366
1433 1433 1433 1433 1433 1433 1433 1433 1432 1432 1431 1430 1430 1429 1428 1427 1426 1425 1424 1423 1422 1421 1419 1418 1417 1416 1414 1413 1412 1410 1409 1408 1406 1404 1403 1402 1401 1399 1397 1396 1394 1393 1392 1391 1389 1388 1386 1385 1383 1382 1381 1379 1378 1377 1376 1375 1374 1373 1372 1371 1370 1369 1368 1368 1367 1366 1365 1364 1364
1433 1433 1433 1433 1433 1433 1432 1432 1431 1431 1430 1429 1428 1428 1427 1426 1425 1423 1423 1421 1420 1418 1417 1416 1415 1413 1412 1411 1409 1408 1407 1406 1404 1403 1401 1400 1398 1397 1395 1393 1392 1390 1389 1388 1386 1385 1383 1382 1381 1379 1378 1377 1376 1375 1374 1373 1372 1371 1369 1368 1368 1367 1366 1365 1364 1363 1363 1362 1361
1433 1433 1433 1433 1432 1432 1431 1431 1430 1429 1428 1428 1427 1426 1425 1424 1423 1422 1421 1419 1418 1417 1415 1414 1413 1411 1410 1409 1407 1406 1404 1403 1402 1401 1399 1398 1396 1395 1393 1391 1389 1388 1386 1385 1383 1382 1381 1379 1378 1378 1377 1376 1374 1373 1372 1371 1370 1368 1367 1366 1365 1364 1363 1363 1362 1360 1359 1358 1358
1433 1433 1432 1432 1431 1430 1430 1429 1429 1428 1427 1426 1425 1424 1423 1422 1421 1420 1418 1418 1416 1415 1413 1412 1410 1409 1408 1407 1405 1403 1402 1401 1400 1399 1397 1396 1394 1393 1391 1389 1387 1385 1383 1382 1381 1379 1378 1377 1376 1376 1375 1374 1373 1372 1370 1369 1368 1366 1365 1364 1363 1362 1360 1360 1359 1358 1356 1355 1354
1432 1431 1431 1431 1430 1429 1429 1428 1428 1427 1426 1425 1423 1423 1422 1420 1419 1418 1417 1415 1414 1413 1412 1410 1409 1407 1406 1405 1403 1402 1400 1399 1398 1397 1395 1393 1392 1390 1388 1387 1384 1383 1381 1380 1378 1377 1376 1375 1374 1374 1373 1372 1371 1370 1368 1367 1365 1364 1363 1361 1360 1359 1358 1357 1356 1355 1354 1353 1353
1431 1430 1430 1430 1429 1428 1428 1427 1426 1425 1424 1423 1422 1421 1420 1418 1417 1416 1415 1413 1413 1411 1410 1408 1407 1405 1404 1403 1401 1400 1398 1397 1395 1394 1393 1391 1389 1388 1386 1384 1382 1380 1378 1377 1376 1375 1374 1374 1373 1372 1372 1371 1370 1368 1367 1365 1363 1362 1360 1359 1358 1357 1356 1355 1354 1353 1353 1352 1351